Time,TemperatureF,DewpointF,PressureIn,WindDirection,WindDirectionDegrees,WindSpeedMPH,WindSpeedGustMPH,Humidity,HourlyPrecipIn,Conditions,Clouds,dailyrainin,SoftwareType,DateUTC
2013-06-14 00:02:00,64.0,59.7,29.88,North,350,4.0,5.0,86,0.00,,,0.00,Wunderground v.1.15,2013-06-14 04:02:00,
2013-06-14 00:07:00,64.1,59.8,29.88,North,355,5.0,5.0,86,0.00,,,0.00,Wunderground v.1.15,2013-06-14 04:07:00,
2013-06-14 00:17:00,64.5,59.9,29.88,North,349,4.0,4.0,85,0.00,,,0.00,Wunderground v.1.15,2013-06-14 04:17:00,
2013-06-14 00:27:00,64.8,59.9,29.88,North,355,4.0,5.0,84,0.00,,,0.00,Wunderground v.1.15,2013-06-14 04:27:00,
2013-06-14 00:37:00,65.0,59.7,29.89,North,5,5.0,5.0,83,0.00,,,0.00,Wunderground v.1.15,2013-06-14 04:37:00,
2013-06-14 00:42:00,65.1,59.8,29.89,North,5,4.0,5.0,83,0.00,,,0.00,Wunderground v.1.15,2013-06-14 04:42:00,
2013-06-14 00:52:00,65.2,59.6,29.88,NNE,14,3.0,3.0,82,0.00,,,0.00,Wunderground v.1.15,2013-06-14 04:52:00,
2013-06-14 00:58:00,65.2,59.2,29.88,NNE,13,3.0,3.0,81,0.00,,,0.00,Wunderground v.1.15,2013-06-14 04:58:00,
2013-06-14 01:07:00,65.2,59.6,29.89,North,355,3.0,3.0,82,0.00,,,0.00,Wunderground v.1.15,2013-06-14 05:07:00,
2013-06-14 01:12:00,65.2,59.6,29.89,NNW,348,3.0,3.0,82,0.00,,,0.00,Wunderground v.1.15,2013-06-14 05:12:00,
2013-06-14 01:22:00,65.2,59.9,29.89,NNW,330,4.0,4.0,83,0.00,,,0.00,Wunderground v.1.15,2013-06-14 05:22:00,
2013-06-14 01:32:00,65.2,59.9,29.89,NNW,340,3.0,4.0,83,0.00,,,0.00,Wunderground v.1.15,2013-06-14 05:32:00,
2013-06-14 01:37:00,65.2,59.9,29.89,NNW,345,3.0,4.0,83,0.00,,,0.00,Wunderground v.1.15,2013-06-14 05:37:00,
2013-06-14 01:47:00,65.1,59.8,29.89,NNE,17,3.0,4.0,83,0.00,,,0.00,Wunderground v.1.15,2013-06-14 05:47:00,
2013-06-14 01:58:00,64.8,59.5,29.89,North,355,3.0,3.0,83,0.00,,,0.00,Wunderground v.1.15,2013-06-14 05:58:00,
2013-06-14 02:07:00,64.6,59.3,29.89,North,360,3.0,3.0,83,0.00,,,0.00,Wunderground v.1.15,2013-06-14 06:07:00,
2013-06-14 02:17:00,64.0,59.1,29.89,North,355,3.0,3.0,84,0.00,,,0.00,Wunderground v.1.15,2013-06-14 06:17:00,
2013-06-14 02:27:00,63.5,58.9,29.89,NNW,338,3.0,3.0,85,0.00,,,0.00,Wunderground v.1.15,2013-06-14 06:27:00,
2013-06-14 02:37:00,63.1,58.5,29.89,NNW,344,3.0,3.0,85,0.00,,,0.00,Wunderground v.1.15,2013-06-14 06:37:00,
2013-06-14 02:42:00,62.9,58.3,29.89,North,5,4.0,5.0,85,0.00,,,0.00,Wunderground v.1.15,2013-06-14 06:42:00,
2013-06-14 02:52:00,62.7,57.8,29.89,North,360,6.0,6.0,84,0.00,,,0.00,Wunderground v.1.15,2013-06-14 06:52:00,
2013-06-14 02:58:00,62.6,57.7,29.89,North,360,5.0,5.0,84,0.00,,,0.00,Wunderground v.1.15,2013-06-14 06:58:00,
2013-06-14 03:07:00,62.2,57.6,29.89,North,5,4.0,4.0,85,0.00,,,0.00,Wunderground v.1.15,2013-06-14 07:07:00,
2013-06-14 03:17:00,61.8,57.2,29.89,North,355,3.0,4.0,85,0.00,,,0.00,Wunderground v.1.15,2013-06-14 07:17:00,
2013-06-14 03:22:00,61.6,57.0,29.90,North,351,3.0,4.0,85,0.00,,,0.00,Wunderground v.1.15,2013-06-14 07:22:00,
2013-06-14 03:32:00,61.4,56.8,29.90,NNW,346,2.0,3.0,85,0.00,,,0.00,Wunderground v.1.15,2013-06-14 07:32:00,
2013-06-14 03:42:00,61.2,57.0,29.90,NNW,346,3.0,3.0,86,0.00,,,0.00,Wunderground v.1.15,2013-06-14 07:42:00,
2013-06-14 03:47:00,61.0,56.8,29.89,NNW,346,2.0,2.0,86,0.00,,,0.00,Wunderground v.1.15,2013-06-14 07:47:00,
2013-06-14 03:58:00,60.7,56.8,29.89,NNW,345,2.0,2.0,87,0.00,,,0.00,Wunderground v.1.15,2013-06-14 07:58:00,
2013-06-14 04:07:00,60.4,56.5,29.89,NNW,345,3.0,3.0,87,0.00,,,0.00,Wunderground v.1.15,2013-06-14 08:07:00,
2013-06-14 04:17:00,60.1,56.2,29.89,NNW,344,2.0,2.0,87,0.00,,,0.00,Wunderground v.1.15,2013-06-14 08:17:00,
2013-06-14 04:27:00,59.8,55.9,29.90,NNW,343,3.0,3.0,87,0.00,,,0.00,Wunderground v.1.15,2013-06-14 08:27:00,
2013-06-14 04:32:00,59.7,55.8,29.90,NNW,342,3.0,3.0,87,0.00,,,0.00,Wunderground v.1.15,2013-06-14 08:32:00,
2013-06-14 04:42:00,59.6,56.0,29.90,NNW,333,2.0,3.0,88,0.00,,,0.00,Wunderground v.1.15,2013-06-14 08:42:00,
2013-06-14 04:52:00,59.5,55.9,29.90,NW,314,2.0,2.0,88,0.00,,,0.00,Wunderground v.1.15,2013-06-14 08:52:00,
2013-06-14 04:58:00,59.4,55.8,29.90,NW,305,2.0,4.0,88,0.00,,,0.00,Wunderground v.1.15,2013-06-14 08:58:00,
2013-06-14 05:07:00,59.3,55.7,29.91,NW,310,3.0,4.0,88,0.00,,,0.00,Wunderground v.1.15,2013-06-14 09:07:00,
2013-06-14 05:12:00,59.4,56.2,29.91,NW,322,4.0,4.0,89,0.00,,,0.00,Wunderground v.1.15,2013-06-14 09:12:00,
2013-06-14 05:22:00,59.5,55.9,29.91,NNW,340,5.0,5.0,88,0.00,,,0.00,Wunderground v.1.15,2013-06-14 09:22:00,
2013-06-14 05:27:00,59.4,55.8,29.91,NNW,339,4.0,4.0,88,0.00,,,0.00,Wunderground v.1.15,2013-06-14 09:27:00,
2013-06-14 05:32:00,59.3,55.7,29.90,NNW,329,4.0,4.0,88,0.00,,,0.00,Wunderground v.1.15,2013-06-14 09:32:00,
2013-06-14 05:42:00,59.1,55.2,29.91,NW,324,4.0,4.0,87,0.00,,,0.00,Wunderground v.1.15,2013-06-14 09:42:00,
2013-06-14 05:47:00,59.0,55.4,29.92,NNW,329,4.0,5.0,88,0.00,,,0.00,Wunderground v.1.15,2013-06-14 09:47:00,
2013-06-14 05:57:00,59.2,55.6,29.92,NNW,340,6.0,7.0,88,0.00,,,0.00,Wunderground v.1.15,2013-06-14 09:57:00,
2013-06-14 06:07:00,59.3,55.7,29.92,NNW,330,6.0,6.0,88,0.00,,,0.00,Wunderground v.1.15,2013-06-14 10:07:00,
2013-06-14 06:17:00,59.5,55.9,29.93,NNW,344,6.0,6.0,88,0.00,,,0.00,Wunderground v.1.15,2013-06-14 10:17:00,
2013-06-14 06:27:00,59.6,56.0,29.94,NW,311,6.0,6.0,88,0.00,,,0.00,Wunderground v.1.15,2013-06-14 10:27:00,
2013-06-14 06:32:00,59.7,56.1,29.94,NW,325,6.0,6.0,88,0.00,,,0.00,Wunderground v.1.15,2013-06-14 10:32:00,
2013-06-14 06:42:00,59.9,56.3,29.94,NNW,348,6.0,7.0,88,0.00,,,0.00,Wunderground v.1.15,2013-06-14 10:42:00,
2013-06-14 06:47:00,60.0,56.1,29.94,NNW,331,6.0,6.0,87,0.00,,,0.00,Wunderground v.1.15,2013-06-14 10:47:00,
2013-06-14 06:58:00,60.4,56.5,29.94,NNW,340,6.0,8.0,87,0.00,,,0.00,Wunderground v.1.15,2013-06-14 10:58:00,
2013-06-14 07:07:00,60.8,56.6,29.95,NNW,330,6.0,6.0,86,0.00,,,0.00,Wunderground v.1.15,2013-06-14 11:07:00,
2013-06-14 07:17:00,61.3,56.8,29.95,NNW,340,6.0,6.0,85,0.00,,,0.00,Wunderground v.1.15,2013-06-14 11:17:00,
2013-06-14 07:27:00,61.8,57.2,29.95,North,5,6.0,6.0,85,0.00,,,0.00,Wunderground v.1.15,2013-06-14 11:27:00,
2013-06-14 07:32:00,62.1,57.2,29.96,North,351,6.0,8.0,84,0.00,,,0.00,Wunderground v.1.15,2013-06-14 11:32:00,
2013-06-14 07:42:00,62.5,57.3,29.96,NNW,345,7.0,9.0,83,0.00,,,0.00,Wunderground v.1.15,2013-06-14 11:42:00,
2013-06-14 07:52:00,63.0,57.4,29.96,NNW,346,7.0,7.0,82,0.00,,,0.00,Wunderground v.1.15,2013-06-14 11:52:00,
2013-06-14 07:58:00,63.2,57.6,29.96,North,360,7.0,7.0,82,0.00,,,0.00,Wunderground v.1.15,2013-06-14 11:58:00,
2013-06-14 08:07:00,63.5,57.6,29.96,NNW,343,8.0,8.0,81,0.00,,,0.00,Wunderground v.1.15,2013-06-14 12:07:00,
2013-06-14 08:12:00,63.9,58.0,29.96,North,5,7.0,8.0,81,0.00,,,0.00,Wunderground v.1.15,2013-06-14 12:12:00,
2013-06-14 08:22:00,64.4,57.4,29.97,North,11,8.0,9.0,78,0.00,,,0.00,Wunderground v.1.15,2013-06-14 12:22:00,
2013-06-14 08:32:00,64.6,57.6,29.98,North,9,9.0,9.0,78,0.00,,,0.00,Wunderground v.1.15,2013-06-14 12:32:00,
2013-06-14 08:37:00,64.8,57.1,29.98,North,10,9.0,9.0,76,0.00,,,0.00,Wunderground v.1.15,2013-06-14 12:37:00,
2013-06-14 08:47:00,65.2,57.4,29.99,NNE,17,9.0,9.0,76,0.00,,,0.00,Wunderground v.1.15,2013-06-14 12:47:00,
2013-06-14 08:58:00,65.5,57.7,29.99,North,11,8.0,8.0,76,0.00,,,0.00,Wunderground v.1.15,2013-06-14 12:58:00,
2013-06-14 09:07:00,65.5,57.7,29.99,North,355,9.0,9.0,76,0.00,,,0.00,Wunderground v.1.15,2013-06-14 13:07:00,
2013-06-14 09:17:00,66.4,58.6,30.00,WNW,300,6.0,6.0,76,0.00,,,0.00,Wunderground v.1.15,2013-06-14 13:17:00,
2013-06-14 09:27:00,66.6,58.4,30.01,NNW,342,7.0,7.0,75,0.00,,,0.00,Wunderground v.1.15,2013-06-14 13:27:00,
2013-06-14 09:37:00,66.8,58.2,30.01,North,5,7.0,7.0,74,0.00,,,0.00,Wunderground v.1.15,2013-06-14 13:37:00,
2013-06-14 09:42:00,67.2,58.6,30.01,NW,314,7.0,7.0,74,0.00,,,0.00,Wunderground v.1.15,2013-06-14 13:42:00,
2013-06-14 09:52:00,67.2,58.2,30.01,North,355,7.0,7.0,73,0.00,,,0.00,Wunderground v.1.15,2013-06-14 13:52:00,
2013-06-14 09:58:00,67.6,58.6,30.01,NNW,333,7.0,8.0,73,0.00,,,0.00,Wunderground v.1.15,2013-06-14 13:58:00,
2013-06-14 10:07:00,67.9,58.5,30.01,North,355,7.0,7.0,72,0.00,,,0.00,Wunderground v.1.15,2013-06-14 14:07:00,
2013-06-14 10:12:00,68.1,59.1,30.01,NNW,343,6.0,7.0,73,0.00,,,0.00,Wunderground v.1.15,2013-06-14 14:12:00,
2013-06-14 10:22:00,68.4,58.2,30.01,NNW,341,6.0,7.0,70,0.00,,,0.00,Wunderground v.1.15,2013-06-14 14:22:00,
2013-06-14 10:32:00,68.8,59.4,30.02,NNW,333,6.0,8.0,72,0.00,,,0.00,Wunderground v.1.15,2013-06-14 14:32:00,
2013-06-14 10:37:00,68.8,58.2,30.02,North,5,8.0,10.0,69,0.00,,,0.00,Wunderground v.1.15,2013-06-14 14:37:00,
2013-06-14 10:47:00,69.1,58.9,30.02,NW,321,8.0,8.0,70,0.00,,,0.00,Wunderground v.1.15,2013-06-14 14:47:00,
2013-06-14 10:58:00,69.6,58.2,30.03,North,5,7.0,7.0,67,0.00,,,0.00,Wunderground v.1.15,2013-06-14 14:58:00,
2013-06-14 11:07:00,70.1,59.9,30.03,NNW,344,8.0,8.0,70,0.00,,,0.00,Wunderground v.1.15,2013-06-14 15:07:00,
2013-06-14 11:17:00,69.8,57.9,30.03,North,360,10.0,10.0,66,0.00,,,0.00,Wunderground v.1.15,2013-06-14 15:17:00,
2013-06-14 11:27:00,70.4,58.1,30.03,NNE,28,10.0,10.0,65,0.00,,,0.00,Wunderground v.1.15,2013-06-14 15:27:00,
2013-06-14 11:32:00,70.8,58.4,30.03,NNE,16,10.0,12.0,65,0.00,,,0.00,Wunderground v.1.15,2013-06-14 15:32:00,
2013-06-14 11:42:00,71.2,59.3,30.02,NNW,335,9.0,10.0,66,0.00,,,0.00,Wunderground v.1.15,2013-06-14 15:42:00,
2013-06-14 11:52:00,70.9,57.7,30.02,NNW,344,8.0,8.0,63,0.00,,,0.00,Wunderground v.1.15,2013-06-14 15:52:00,
2013-06-14 11:58:00,71.2,59.3,30.02,North,355,8.0,9.0,66,0.00,,,0.00,Wunderground v.1.15,2013-06-14 15:58:00,
2013-06-14 12:07:00,71.6,59.2,30.03,NNW,337,7.0,8.0,65,0.00,,,0.00,Wunderground v.1.15,2013-06-14 16:07:00,
2013-06-14 12:12:00,71.9,58.2,30.03,North,360,7.0,9.0,62,0.00,,,0.00,Wunderground v.1.15,2013-06-14 16:12:00,
2013-06-14 12:22:00,72.3,58.1,30.03,NNE,23,7.0,10.0,61,0.00,,,0.00,Wunderground v.1.15,2013-06-14 16:22:00,
2013-06-14 12:32:00,71.9,59.1,30.03,NNE,17,7.0,8.0,64,0.00,,,0.00,Wunderground v.1.15,2013-06-14 16:32:00,
2013-06-14 12:37:00,72.3,59.0,30.03,NNW,331,7.0,11.0,63,0.00,,,0.00,Wunderground v.1.15,2013-06-14 16:37:00,
2013-06-14 12:47:00,72.5,60.1,30.03,WNW,302,6.0,12.0,65,0.00,,,0.00,Wunderground v.1.15,2013-06-14 16:47:00,
2013-06-14 12:58:00,72.1,58.4,30.02,North,355,7.0,7.0,62,0.00,,,0.00,Wunderground v.1.15,2013-06-14 16:58:00,
2013-06-14 13:07:00,72.2,58.9,30.02,North,5,7.0,11.0,63,0.00,,,0.00,Wunderground v.1.15,2013-06-14 17:07:00,
2013-06-14 13:17:00,72.6,59.3,30.02,NNW,346,6.0,9.0,63,0.00,,,0.00,Wunderground v.1.15,2013-06-14 17:17:00,
2013-06-14 13:27:00,72.9,59.6,30.02,North,360,7.0,7.0,63,0.00,,,0.00,Wunderground v.1.15,2013-06-14 17:27:00,
2013-06-14 13:37:00,73.3,59.0,30.02,North,355,5.0,5.0,61,0.00,,,0.00,Wunderground v.1.15,2013-06-14 17:37:00,
2013-06-14 13:47:00,73.5,57.8,30.02,North,11,7.0,7.0,58,0.00,,,0.00,Wunderground v.1.15,2013-06-14 17:47:00,
2013-06-14 13:58:00,74.0,58.8,30.01,NNE,28,6.0,6.0,59,0.00,,,0.00,Wunderground v.1.15,2013-06-14 17:58:00,
2013-06-14 14:07:00,74.6,59.8,30.01,NNW,342,6.0,11.0,60,0.00,,,0.00,Wunderground v.1.15,2013-06-14 18:07:00,
2013-06-14 14:17:00,74.6,59.3,30.01,NNE,24,6.0,6.0,59,0.00,,,0.00,Wunderground v.1.15,2013-06-14 18:17:00,
2013-06-14 14:27:00,73.9,58.2,30.01,NNW,340,6.0,6.0,58,0.00,,,0.00,Wunderground v.1.15,2013-06-14 18:27:00,
2013-06-14 14:37:00,73.3,58.6,30.01,NNE,19,5.0,5.0,60,0.00,,,0.00,Wunderground v.1.15,2013-06-14 18:37:00,
2013-06-14 14:42:00,73.6,58.4,30.01,NE,44,5.0,5.0,59,0.00,,,0.00,Wunderground v.1.15,2013-06-14 18:42:00,
2013-06-14 14:52:00,72.7,58.5,30.01,ESE,123,4.0,5.0,61,0.00,,,0.00,Wunderground v.1.15,2013-06-14 18:52:00,
2013-06-14 14:58:00,72.6,59.3,30.01,ENE,67,4.0,5.0,63,0.00,,,0.00,Wunderground v.1.15,2013-06-14 18:58:00,
2013-06-14 15:07:00,72.4,61.2,30.00,ESE,118,6.0,6.0,68,0.00,,,0.00,Wunderground v.1.15,2013-06-14 19:07:00,
2013-06-14 15:17:00,72.8,60.3,30.00,East,79,5.0,5.0,65,0.00,,,0.00,Wunderground v.1.15,2013-06-14 19:17:00,
2013-06-14 15:22:00,73.1,61.5,30.00,SE,128,4.0,5.0,67,0.00,,,0.00,Wunderground v.1.15,2013-06-14 19:22:00,
2013-06-14 15:32:00,73.2,60.3,30.00,SE,138,4.0,5.0,64,0.00,,,0.00,Wunderground v.1.15,2013-06-14 19:32:00,
2013-06-14 15:42:00,73.4,61.3,30.00,East,96,3.0,5.0,66,0.00,,,0.00,Wunderground v.1.15,2013-06-14 19:42:00,
2013-06-14 15:52:00,73.7,60.3,30.00,ESE,123,4.0,4.0,63,0.00,,,0.00,Wunderground v.1.15,2013-06-14 19:52:00,
2013-06-14 15:58:00,73.9,61.0,29.99,East,89,4.0,6.0,64,0.00,,,0.00,Wunderground v.1.15,2013-06-14 19:58:00,
2013-06-14 16:07:00,73.4,59.1,30.00,East,84,4.0,6.0,61,0.00,,,0.00,Wunderground v.1.15,2013-06-14 20:07:00,
2013-06-14 16:17:00,73.2,59.8,30.00,East,96,4.0,4.0,63,0.00,,,0.00,Wunderground v.1.15,2013-06-14 20:17:00,
2013-06-14 16:27:00,73.5,60.1,30.00,SE,128,3.0,3.0,63,0.00,,,0.00,Wunderground v.1.15,2013-06-14 20:27:00,
2013-06-14 16:37:00,73.8,59.5,30.00,ESE,107,3.0,3.0,61,0.00,,,0.00,Wunderground v.1.15,2013-06-14 20:37:00,
2013-06-14 16:47:00,73.8,59.0,30.00,SE,136,4.0,4.0,60,0.00,,,0.00,Wunderground v.1.15,2013-06-14 20:47:00,
2013-06-14 16:58:00,73.8,60.0,29.99,SSE,160,3.0,3.0,62,0.00,,,0.00,Wunderground v.1.15,2013-06-14 20:58:00,
2013-06-14 17:07:00,73.7,58.9,30.00,ESE,109,4.0,5.0,60,0.00,,,0.00,Wunderground v.1.15,2013-06-14 21:07:00,
2013-06-14 17:17:00,73.8,59.0,30.00,SSE,147,3.0,3.0,60,0.00,,,0.00,Wunderground v.1.15,2013-06-14 21:17:00,
2013-06-14 17:27:00,73.7,58.9,30.00,SE,126,3.0,4.0,60,0.00,,,0.00,Wunderground v.1.15,2013-06-14 21:27:00,
2013-06-14 17:32:00,73.7,58.5,30.00,ESE,118,3.0,4.0,59,0.00,,,0.00,Wunderground v.1.15,2013-06-14 21:32:00,
2013-06-14 17:42:00,74.0,59.7,30.00,East,88,3.0,3.0,61,0.00,,,0.00,Wunderground v.1.15,2013-06-14 21:42:00,
2013-06-14 17:47:00,73.9,58.7,30.00,ENE,76,3.0,5.0,59,0.00,,,0.00,Wunderground v.1.15,2013-06-14 21:47:00,
2013-06-14 17:57:00,73.5,58.8,30.00,SE,135,4.0,4.0,60,0.00,,,0.00,Wunderground v.1.15,2013-06-14 21:57:00,
2013-06-14 18:07:00,73.3,58.1,30.00,East,93,3.0,3.0,59,0.00,,,0.00,Wunderground v.1.15,2013-06-14 22:07:00,
2013-06-14 18:17:00,73.1,57.9,30.00,ESE,112,4.0,5.0,59,0.00,,,0.00,Wunderground v.1.15,2013-06-14 22:17:00,
2013-06-14 18:27:00,73.0,59.2,29.99,East,89,3.0,6.0,62,0.00,,,0.00,Wunderground v.1.15,2013-06-14 22:27:00,
2013-06-14 18:32:00,72.8,59.0,30.00,ESE,106,3.0,6.0,62,0.00,,,0.00,Wunderground v.1.15,2013-06-14 22:32:00,
2013-06-14 18:42:00,71.9,58.2,30.00,East,94,2.0,5.0,62,0.00,,,0.00,Wunderground v.1.15,2013-06-14 22:42:00,
2013-06-14 18:52:00,71.5,60.0,30.00,ESE,121,2.0,3.0,67,0.00,,,0.00,Wunderground v.1.15,2013-06-14 22:52:00,
2013-06-14 18:58:00,71.4,59.0,29.99,SE,132,2.0,3.0,65,0.00,,,0.00,Wunderground v.1.15,2013-06-14 22:58:00,
2013-06-14 19:07:00,71.2,58.8,29.99,SE,134,3.0,3.0,65,0.00,,,0.00,Wunderground v.1.15,2013-06-14 23:07:00,
2013-06-14 19:16:00,71.0,59.1,29.99,ENE,77,2.0,2.0,66,0.00,,,0.00,Wunderground v.1.15,2013-06-14 23:16:00,
2013-06-14 19:26:00,71.2,60.1,29.99,SE,128,3.0,3.0,68,0.00,,,0.00,Wunderground v.1.15,2013-06-14 23:26:00,
2013-06-14 19:36:00,71.3,59.4,29.99,East,90,2.0,2.0,66,0.00,,,0.00,Wunderground v.1.15,2013-06-14 23:36:00,
2013-06-14 19:46:00,71.3,60.2,30.00,ESE,123,2.0,3.0,68,0.00,,,0.00,Wunderground v.1.15,2013-06-14 23:46:00,
2013-06-14 19:51:00,71.4,59.9,29.99,SSE,165,2.0,3.0,67,0.00,,,0.00,Wunderground v.1.15,2013-06-14 23:51:00,
2013-06-14 19:57:00,71.3,59.4,29.99,ESE,123,2.0,4.0,66,0.00,,,0.00,Wunderground v.1.15,2013-06-14 23:57:00,
2013-06-14 20:06:00,71.0,59.1,29.99,ESE,107,2.0,2.0,66,0.00,,,0.00,Wunderground v.1.15,2013-06-15 00:06:00,
2013-06-14 20:16:00,70.8,59.7,29.99,SE,129,2.0,2.0,68,0.00,,,0.00,Wunderground v.1.15,2013-06-15 00:16:00,
2013-06-14 20:26:00,70.3,59.6,29.99,ESE,108,1.0,1.0,69,0.00,,,0.00,Wunderground v.1.15,2013-06-15 00:26:00,
2013-06-14 20:36:00,70.0,59.4,30.00,East,86,0.0,0.0,69,0.00,,,0.00,Wunderground v.1.15,2013-06-15 00:36:00,
2013-06-14 20:41:00,69.8,59.6,29.99,SE,128,0.0,2.0,70,0.00,,,0.00,Wunderground v.1.15,2013-06-15 00:41:00,
2013-06-14 20:51:00,69.3,59.1,30.00,ESE,103,2.0,2.0,70,0.00,,,0.00,Wunderground v.1.15,2013-06-15 00:51:00,
2013-06-14 20:57:00,69.0,59.2,29.99,ESE,103,0.0,0.0,71,0.00,,,0.00,Wunderground v.1.15,2013-06-15 00:57:00,
2013-06-14 21:06:00,68.5,58.7,30.00,SE,131,1.0,2.0,71,0.00,,,0.00,Wunderground v.1.15,2013-06-15 01:06:00,
2013-06-14 21:16:00,68.0,58.2,30.00,SE,130,1.0,2.0,71,0.00,,,0.00,Wunderground v.1.15,2013-06-15 01:16:00,
2013-06-14 21:26:00,67.6,58.2,30.00,ESE,111,1.0,2.0,72,0.00,,,0.00,Wunderground v.1.15,2013-06-15 01:26:00,
2013-06-14 21:36:00,67.2,57.9,30.00,SE,140,2.0,2.0,72,0.00,,,0.00,Wunderground v.1.15,2013-06-15 01:36:00,
2013-06-14 21:46:00,66.9,57.6,30.00,SE,138,1.0,1.0,72,0.00,,,0.00,Wunderground v.1.15,2013-06-15 01:46:00,
2013-06-14 21:57:00,66.5,57.2,30.01,ESE,111,0.0,1.0,72,0.00,,,0.00,Wunderground v.1.15,2013-06-15 01:57:00,
2013-06-14 22:06:00,66.3,57.4,30.02,ESE,112,1.0,1.0,73,0.00,,,0.00,Wunderground v.1.15,2013-06-15 02:06:00,
2013-06-14 22:16:00,65.8,57.3,30.02,ESE,117,1.0,1.0,74,0.00,,,0.00,Wunderground v.1.15,2013-06-15 02:16:00,
2013-06-14 22:26:00,65.2,57.1,30.02,ESE,117,0.0,0.0,75,0.00,,,0.00,Wunderground v.1.15,2013-06-15 02:26:00,
2013-06-14 22:36:00,65.0,56.5,30.02,ESE,117,0.0,0.0,74,0.00,,,0.00,Wunderground v.1.15,2013-06-15 02:36:00,
2013-06-14 22:46:00,64.6,56.9,30.02,ESE,117,0.0,1.0,76,0.00,,,0.00,Wunderground v.1.15,2013-06-15 02:46:00,
2013-06-14 22:51:00,64.3,56.6,30.03,ESE,117,1.0,1.0,76,0.00,,,0.00,Wunderground v.1.15,2013-06-15 02:51:00,
2013-06-14 22:57:00,64.1,56.0,30.03,ESE,117,1.0,1.0,75,0.00,,,0.00,Wunderground v.1.15,2013-06-15 02:57:00,
2013-06-14 23:06:00,64.0,55.9,30.03,ESE,117,0.0,0.0,75,0.00,,,0.00,Wunderground v.1.15,2013-06-15 03:06:00,
2013-06-14 23:16:00,64.0,55.9,30.02,ESE,117,0.0,0.0,75,0.00,,,0.00,Wunderground v.1.15,2013-06-15 03:16:00,
2013-06-14 23:26:00,64.1,55.6,30.02,ESE,117,0.0,0.0,74,0.00,,,0.00,Wunderground v.1.15,2013-06-15 03:26:00,
2013-06-14 23:36:00,63.8,55.7,30.02,ESE,119,1.0,1.0,75,0.00,,,0.00,Wunderground v.1.15,2013-06-15 03:36:00,
2013-06-14 23:46:00,63.6,55.5,30.03,ESE,119,0.0,0.0,75,0.00,,,0.00,Wunderground v.1.15,2013-06-15 03:46:00,
2013-06-14 23:56:00,63.5,55.4,30.03,ESE,119,0.0,1.0,75,0.00,,,0.00,Wunderground v.1.15,2013-06-15 03:56:00,